SM7SJR-13 Weather Reports


Display with metric or nautical units.
time (UTC)temp
F
wind
direction
speed
MPH
gust
MPH
rain 1hr
in
rain 24hr
in
rain mn
in
humidity
%
barometer
mb
20260901071504 62 257 2.0 7.0 0.00 0.00 0.00 95 1006.7
20260901070003 62 277 5.0 8.0 0.00 0.00 0.00 96 1006.6
20260901064503 62 267 4.0 7.0 0.00 0.00 0.00 96 1006.5
20260901063005 62 281 1.0 5.0 0.00 0.00 0.00 97 1006.4
20260901061504 61 270 1.0 5.0 0.00 0.00 0.00 98 1006.4
20260901060003 61 270 1.0 3.0 0.00 0.00 0.00 98 1006.4
20260901054504 60 223 0.0 0.0 0.00 0.00 0.00 98 1006.3
20260901053004 60 223 0.0 0.0 0.00 0.00 0.00 98 1006.3
20260901050004 56 223 0.0 3.0 0.00 0.00 0.00 97 1006.3
20260901044506 56 223 1.0 3.0 0.00 0.00 0.00 97 1006.3
20260901041504 56 256 0.0 0.0 0.00 0.00 0.00 97 1006.2
20260901040004 57 257 0.0 0.0 0.00 0.00 0.00 97 1006.1
20260901034504 58 257 0.0 3.0 0.00 0.00 0.00 97 1006.3
20260901033003 58 257 2.0 3.0 0.00 0.00 0.00 97 1006.3
20260901031504 58 225 3.0 7.0 0.00 0.00 0.00 98 1006.3
20260901024503 57 188 3.0 5.0 0.00 0.01 0.00 97 1006.2
20260901023004 56 194 2.0 3.0 0.00 0.01 0.00 97 1006.3
20260901021503 57 224 0.0 0.0 0.00 0.01 0.00 97 1006.1
20260901020005 57 224 0.0 0.0 0.00 0.01 0.00 96 1006.2
20260901014504 58 271 0.0 0.0 0.00 0.01 0.00 97 1006.1
20260901013004 58 271 0.0 0.0 0.00 0.01 0.00 97 1005.9
20260901011504 59 271 0.0 0.0 0.00 0.01 0.00 97 1005.9
20260901010004 59 271 0.0 0.0 0.00 0.01 0.00 97 1006.0
20260901004504 60 271 0.0 0.0 0.00 0.01 0.00 96 1006.0
20260901003003 60 271 0.0 0.0 0.00 0.01 0.00 97 1006.0
20260901001503 60 265 0.0 3.0 0.00 0.01 0.00 97 1006.0
20260901000004 60 267 2.0 5.0 0.00 0.01 0.00 97 1006.2
20260831233003 60 225 0.0 5.0 0.00 0.01 0.00 97 1006.2
20260831231504 59 236 0.0 3.0 0.00 0.01 0.00 97 1006.4
20260831230004 58 215 2.0 7.0 0.00 0.01 0.00 97 1006.5
20260831224504 56 173 0.0 0.0 0.00 0.01 0.00 96 1006.3
20260831223004 57 173 0.0 3.0 0.00 0.01 0.00 95 1006.4
20260831221503 57 167 0.0 3.0 0.00 0.01 0.00 95 1006.3
20260831220004 58 157 2.0 5.0 0.00 0.01 0.00 95 1006.3
20260831214504 59 165 2.0 5.0 0.00 0.01 0.01 95 1006.4
20260831213004 59 178 2.0 5.0 0.00 0.01 0.01 95 1006.4
20260831211504 59 174 0.0 3.0 0.00 0.01 0.01 94 1006.4
20260831204503 61 202 0.0 6.0 0.00 0.01 0.01 94 1006.4
20260831203004 62 198 2.0 7.0 0.00 0.01 0.01 94 1006.4
20260831201503 62 176 4.0 7.0 0.00 0.01 0.01 94 1006.4
20260831194503 62 171 2.0 6.0 0.00 0.01 0.01 95 1006.4
20260831193004 62 184 1.0 8.0 0.00 0.01 0.01 95 1006.4
20260831191504 63 157 3.0 8.0 0.00 0.01 0.01 94 1006.4
20260831190003 63 160 3.0 7.0 0.00 0.01 0.01 94 1006.3
20260831183004 62 153 3.0 6.0 0.00 0.01 0.01 92 1006.3
20260831181504 62 137 3.0 5.0 0.00 0.02 0.01 91 1006.4
20260831180003 63 175 2.0 5.0 0.00 0.02 0.01 91 1006.4
20260831173004 65 184 2.0 6.0 0.00 0.02 0.01 88 1006.2
20260831171504 66 181 2.0 9.0 0.00 0.02 0.01 86 1006.2
20260831163004 67 165 3.0 7.0 0.00 0.02 0.01 81 1006.1
20260831160004 69 190 1.0 7.0 0.00 0.03 0.01 77 1006.4
20260831154504 70 191 4.0 13.0 0.00 0.03 0.01 74 1006.4
20260831153004 70 189 6.0 12.0 0.00 0.07 0.01 75 1006.6
20260831151504 68 222 2.0 7.0 0.00 0.08 0.01 81 1006.5
20260831150003 67 197 3.0 12.0 0.00 0.08 0.01 80 1006.5
20260831143004 67 212 5.0 9.0 0.00 0.12 0.01 79 1006.6
20260831141504 67 193 2.0 9.0 0.00 0.22 0.01 77 1006.7
20260831140004 68 202 1.0 8.0 0.00 0.23 0.01 76 1006.7
20260831133003 68 198 6.0 12.0 0.00 0.23 0.01 75 1006.7
20260831131503 68 201 6.0 14.0 0.00 0.23 0.01 74 1006.7
20260831124503 69 188 5.0 9.0 0.00 0.23 0.01 73 1006.6
20260831123003 69 186 3.0 9.0 0.00 0.23 0.01 72 1006.6
20260831121504 69 211 1.0 12.0 0.00 0.23 0.01 73 1006.6
20260831114503 70 200 5.0 12.0 0.00 0.23 0.01 70 1006.7
20260831113003 71 193 3.0 12.0 0.00 0.23 0.01 70 1006.9
20260831111503 70 222 7.0 16.0 0.00 0.23 0.01 70 1006.9
20260831110004 71 208 7.0 17.0 0.00 0.23 0.01 70 1006.8
20260831103004 67 208 9.0 13.0 0.00 0.23 0.01 77 1007.4
20260831101504 66 196 4.0 13.0 0.00 0.23 0.01 82 1007.5
20260831100004 66 195 4.0 13.0 0.00 0.23 0.01 82 1007.5
20260831094503 65 210 5.0 9.0 0.00 0.23 0.01 84 1007.3
20260831091504 65 217 5.0 12.0 0.00 0.23 0.01 86 1007.2
20260831090004 65 226 6.0 9.0 0.00 0.23 0.01 86 1007.0
20260831083004 65 224 5.0 12.0 0.00 0.23 0.01 86 1006.8
20260831081504 65 200 6.0 10.0 0.00 0.23 0.01 88 1007.1
20260831080004 64 224 5.0 12.0 0.00 0.23 0.01 90 1007.1
20260831074504 64 203 4.0 9.0 0.00 0.23 0.01 91 1006.9
20260831073004 63 228 6.0 10.0 0.00 0.23 0.01 93 1006.9